New Paris, IN

12:21 PM EST on December 03, 2016 (GMT -0500)
Goshen Municipal

Weather History for KGSH - June, 2013

Change the Weather History Date:

Sunday, June 30, 2013

  Actual Average Record
Temperature  
Mean Temperature 70 °F -  
Max Temperature 78 °F 82 °F 97 °F (1963)
Min Temperature 62 °F 62 °F 46 °F (2010)
Cooling Degree Days 4    
Growing Degree Days 20 (Base 50)    
Moisture  
Dew Point 60 °F    
Average Humidity 78    
Maximum Humidity 94    
Minimum Humidity 56    
Precipitation  
Precipitation 0.31 in - - ()
Sea Level Pressure  
Sea Level Pressure 29.82 in    
Wind  
Wind Speed 7 mph (NE)    
Max Wind Speed 12 mph    
Max Gust Speed -    
Visibility 8 miles    
Events Rain    
Averages and records for this station are not official NWS values.
T = Trace of Precipitation, MM = Missing Value Source: NWS Daily Summary

Daily Weather History Graph

Daily Weather History Graph

Search for Another Location

Airport or City:

Trip Planner

Search our weather history database for the weather conditions in past years. The results will help you decide how hot, cold, wet, or windy it might be!

Date:

Astronomy

Jun. 30, 2013 Rise Set
Actual Time 6:12 AM EDT 9:20 PM EDT
Civil Twilight 5:38 AM EDT 9:54 PM EDT
Nautical Twilight 4:55 AM EDT 10:38 PM EDT
Astronomical Twilight 4:03 AM EDT 11:29 PM EDT
Moon 1:14 AM EDT (6/30) 2:31 PM EDT (6/30)
Length of Visible Light 16h 16m
Length of Day
15h 08m
Last Quarter, 45% of the Moon is Illuminated
Jun 30
Last Quarter
Jul 8
New
Jul 15
First Quarter
Jul 22
Full
Jul 29
Last Quarter

Hourly Weather History & Observations

Time (EDT) Temp. Dew Point Humidity Pressure Visibility Wind Dir Wind Speed Gust Speed Precip Events Conditions
12:53 AM 64.9 °F 62.1 °F 90% 29.73 in 3.0 mi NE 5.8 mph - 0.16 in Rain Light Rain
1:53 AM 64.9 °F 61.0 °F 87% 29.73 in 9.0 mi NE 9.2 mph - 0.00 in   Overcast
2:53 AM 64.0 °F 62.1 °F 93% 29.74 in 5.0 mi NE 4.6 mph - 0.07 in Rain Light Rain
3:24 AM 64.4 °F 62.6 °F 94% 29.76 in 2.5 mi NE 3.5 mph - 0.03 in Rain Light Rain
3:30 AM 64.4 °F 62.6 °F 94% 29.76 in 4.0 mi NE 4.6 mph - 0.03 in Rain Light Rain
3:49 AM 64.4 °F 60.8 °F 88% 29.76 in 7.0 mi NNE 4.6 mph - 0.03 in   Overcast
3:53 AM 64.0 °F 61.0 °F 90% 29.75 in 7.0 mi NNE 5.8 mph - 0.03 in Rain Light Rain
4:53 AM 63.0 °F 60.1 °F 90% 29.76 in 10.0 mi NNE 5.8 mph - 0.02 in Rain Light Rain
5:53 AM 64.0 °F 60.1 °F 87% 29.77 in 10.0 mi NNE 6.9 mph - 0.00 in   Overcast
6:53 AM 63.0 °F 60.1 °F 90% 29.79 in 4.0 mi NE 6.9 mph - 0.02 in Rain Light Rain
7:02 AM 62.6 °F 60.8 °F 94% 29.79 in 2.5 mi NNE 5.8 mph - 0.01 in Rain Light Rain
7:09 AM 62.6 °F 60.8 °F 94% 29.79 in 8.0 mi NNE 6.9 mph - 0.01 in Rain Light Rain
7:53 AM 64.0 °F 59.0 °F 84% 29.81 in 10.0 mi NE 8.1 mph - 0.01 in   Overcast
8:53 AM 64.0 °F 59.0 °F 84% 29.82 in 10.0 mi NNE 6.9 mph - N/A   Overcast
9:53 AM 66.9 °F 59.0 °F 76% 29.83 in 10.0 mi NNE 9.2 mph - N/A   Overcast
10:53 AM 69.1 °F 57.9 °F 68% 29.84 in 10.0 mi NE 11.5 mph - N/A   Overcast
11:53 AM 71.1 °F 60.1 °F 68% 29.86 in 10.0 mi NE 10.4 mph - N/A   Mostly Cloudy
12:53 PM 73.0 °F 61.0 °F 66% 29.86 in 10.0 mi NNE 10.4 mph - N/A   Mostly Cloudy
1:53 PM 73.0 °F 61.0 °F 66% 29.86 in 10.0 mi NNE 10.4 mph - N/A   Mostly Cloudy
2:53 PM 73.9 °F 60.1 °F 62% 29.86 in 10.0 mi East 8.1 mph - N/A   Overcast
3:53 PM 75.0 °F 60.1 °F 60% 29.86 in 10.0 mi NE 6.9 mph - N/A   Overcast
4:53 PM 75.9 °F 59.0 °F 56% 29.86 in 10.0 mi East 10.4 mph - N/A   Overcast
5:53 PM 77.0 °F 60.1 °F 56% 29.86 in 10.0 mi ENE 6.9 mph - N/A   Overcast
6:53 PM 69.1 °F 61.0 °F 75% 29.88 in 10.0 mi North 9.2 mph - 0.00 in Rain Light Rain
7:53 PM 68.0 °F 59.0 °F 73% 29.90 in 10.0 mi North 6.9 mph - 0.00 in   Mostly Cloudy
8:53 PM 69.1 °F 60.1 °F 73% 29.90 in 10.0 mi NNE 9.2 mph - N/A   Overcast
9:53 PM 66.9 °F 57.0 °F 70% 29.91 in 10.0 mi NNE 6.9 mph - N/A   Mostly Cloudy
10:53 PM 68.0 °F 57.0 °F 68% 29.94 in 10.0 mi NE 8.1 mph - N/A   Overcast
11:53 PM 64.9 °F 57.9 °F 78% 29.94 in 10.0 mi NE 6.9 mph - N/A   Clear